sat.trackr.live / text

‹ back to catalog

STARLINK-36785

NORAD 67853 · 2026-034D

PAYLOAD ACTIVE UNKNOWN

§ Identity

Operator
Country
US
Launch date
2026-02-20
Launch site
AFETR
Launch vehicle
Mass (kg)
RCS (m²)

Purposes: comms

External: N2YO · Heavens-Above · Gunter

§ Orbital elements

Epoch: 2026-05-24T21:32:35.918016Z

Period
94.11 min
Inclination
53.1599°
Eccentricity
0.0001443
Mean motion
15.30204827 rev/d
Perigee alt
474.2 km
Apogee alt
476.2 km
Semi-major
6,853.3 km
B*
3.3040e-4
RAAN
210.2498°
Arg perigee
79.4010°
Mean anomaly
280.7153°
Rev number
1,570

§ Raw data

STARLINK-367851 67853U 26034D   26144.89763794  .00009440  00000+0  33040-3 0  99932 67853  53.1599 210.2498 0001443  79.4010 280.7153 15.30204827 15703

JSON: /api/v1/satellites/67853 · /tle

For live sub-satellite position, see the globe view (requires WebGL).

§ Visibility from observer

Set your observer location to see the next 7 days of passes ≥ 10°. The values pass through the URL so the page stays shareable.

No JS? Fill the form by hand. The geolocation button needs JavaScript.